This is the latest recevied weather packets stored in our database for station/object WP4NYS-13. If no packets are shown the sender has not sent any weather packets the latest 10 day(s).
| Time | Temp. | Humidity | Pressure | Rain* | Wind** | Luminosity | Snow |
|---|---|---|---|---|---|---|---|
| 1778002560 | 30.56° C | 41% | 1016.7 hPa | 0 mm | - | - | - |
| 1778002256 | 29.44° C | 41% | 1017.1 hPa | 0 mm | - | - | - |
| 1778001955 | 29.44° C | 43% | 1017.2 hPa | 0 mm | - | - | - |
| 1778001651 | 29.44° C | 43% | 1017.1 hPa | 0 mm | - | - | - |
| 1778001351 | 28.89° C | 45% | 1017.2 hPa | 0 mm | - | - | - |
| 1778001048 | 28.33° C | 47% | 1017.1 hPa | 0 mm | - | - | - |
| 1778000745 | 27.78° C | 47% | 1017.4 hPa | 0 mm | - | - | - |
| 1778000442 | 27.78° C | 47% | 1017.4 hPa | 0 mm | - | - | - |
| 1778000137 | 27.78° C | 46% | 1017.7 hPa | 0 mm | - | - | - |
| 1777999833 | 28.33° C | 47% | 1017.7 hPa | 0 mm | - | - | - |
| 1777999529 | 28.89° C | 47% | 1017.3 hPa | 0 mm | - | - | - |
| 1777999227 | 30° C | 44% | 1017.5 hPa | 0 mm | - | - | - |
| 1777998926 | 30° C | 44% | 1017.7 hPa | 0 mm | - | - | - |
| 1777998622 | 29.44° C | 46% | 1017.5 hPa | 0 mm | - | - | - |
| 1777998321 | 29.44° C | 47% | 1017.5 hPa | 0 mm | - | - | - |
| 1777998018 | 29.44° C | 46% | 1017.8 hPa | 0 mm | - | - | - |
| 1777997714 | 28.89° C | 46% | 1017.7 hPa | 0 mm | - | - | - |
| 1777997412 | 28.33° C | 49% | 1017.6 hPa | 0 mm | - | - | - |
| 1777997109 | 28.33° C | 49% | 1017.9 hPa | 0 mm | - | - | - |
| 1777996806 | 27.78° C | 50% | 1017.8 hPa | 0 mm | - | - | - |
| 1777996502 | 28.33° C | 49% | 1017.9 hPa | 0 mm | - | - | - |
| 1777996199 | 27.78° C | 50% | 1018 hPa | 0 mm | - | - | - |
| 1777995896 | 27.22° C | 50% | 1018 hPa | 0 mm | - | - | - |
| 1777995591 | 27.78° C | 51% | 1017.9 hPa | 0 mm | - | - | - |
| 1777995290 | 28.33° C | 49% | 1018 hPa | 0 mm | - | - | - |
* Rain latest hour (hover to see other rain measurements)
** Current wind speed in m/s (hover to see current wind gust speed)